Retour au catalogue

STARLINK-37432

ActifCommunicationsSSO
NORAD 68896·PAYLOAD·🇺🇸 United States

Lancé Apr 30, 2026 depuis Vandenberg Space Force Base

Loading…

Prochains Passages (prochaines 24 heures)

TLE

FraisSource: CelesTrak SupGP

Époque: Sep 15, 2026, 03:56 UTC

1 68896C 26097B   26258.16437500 -.00053710  00000+0 -16670-2 0  2587
2 68896  97.2857  92.3871 0001586  91.4470 297.2879 15.33470929    10

Suivez STARLINK-37432 en temps réel avec AllMySat

Download on the App Store